Regional Weather Roundup
Issued by NWS Little Rock, AR

Home | Current Version | Previous Version | Text Only | Print | Product List | Glossary Off
Versions: 1 2 3 4 5 6 7 8 9 10 11 12 13 14 15 16 17 18 19 20 21 22 23 24 25 26 27 28 29 30 31 32 33 34 35 36 37 38 39 40 41 42 43 44 45 46 47 48 49 50

127
ASUS44 KLZK 231405
RWRLZK

WEATHER ROUNDUP FOR ARKANSAS
NATIONAL WEATHER SERVICE LITTLE ROCK AR
900 AM CDT THU MAR 23 2017

NOTE: "FAIR" INDICATES FEW OR NO CLOUDS BELOW 12,000 FEET WITH NO
SIGNIFICANT WEATHER AND/OR OBSTRUCTIONS TO VISIBILITY.

ARZ001-003-010-029-231500-
NORTHWEST ARKANSAS

CITY           SKY/WX    TMP DP  RH WIND       PRES   REMARKS
FAYETTEVILLE   SUNNY     56  42  59 E5        30.14S
FORT SMITH     PTSUNNY   53  35  50 E12       30.16S
HARRISON       CLOUDY    46  33  60 SE14      30.20R
BENTONVILLE    SUNNY     54  37  54 SE12      30.15S
ROGERS         SUNNY     53  38  56 SE14      30.15R
SILOAM SPGS    MOSUNNY   57  39  51 S16       30.12S
HIGHFILL       SUNNY     55  39  54 SE12      30.13S
SPRINGDALE     SUNNY     55  37  50 SE8       30.16S
$$

ARZ004-005-016-231500-
NORTH CENTRAL ARKANSAS

CITY           SKY/WX    TMP DP  RH WIND       PRES   REMARKS
BATESVILLE     CLOUDY    48  36  61 SE6       30.27S
FLIPPIN        CLOUDY    48  28  46 E3        30.22R
$$

ARZ040-041-231500-
WEST CENTRAL ARKANSAS

CITY           SKY/WX    TMP DP  RH WIND       PRES   REMARKS
MENA           CLOUDY    54  46  76 CALM      30.17S
$$

ARZ009-017-025-026-028-231500-
NORTHEAST ARKANSAS

CITY           SKY/WX    TMP DP  RH WIND       PRES   REMARKS
JONESBORO      SUNNY     51  37  58 E8        30.27R
NEWPORT        PTSUNNY   51  36  56 SE5       30.27S
WALNUT RIDGE   SUNNY     48  34  57 E3        30.28R
BLYTHEVILLE    CLOUDY    48  34  58 E7        30.29S
$$

ARZ022-023-033-042-044-231500-
CENTRAL ARKANSAS

CITY           SKY/WX    TMP DP  RH WIND       PRES   REMARKS
LITTLE ROCK    MOSUNNY   54  38  54 E10       30.23S
N LITTLE ROCK    N/A     54  37  52 E9        30.24S
JACKSONVILLE   MOSUNNY   54  37  52 SE9       30.22F
CONWAY           N/A     55  36  47 SE3       30.22R
SEARCY         CLOUDY    53  37  54 E5        30.27S
HOT SPRINGS    CLOUDY    57  40  52 E10       30.20S
RUSSELLVILLE   PTSUNNY   53  33  46 E6        30.22R
CLINTON        CLOUDY    52  36  54 CALM      30.25S
$$

ARZ036-231500-
EAST ARKANSAS

CITY           SKY/WX    TMP DP  RH WIND       PRES   REMARKS
WEST MEMPHIS   SUNNY     53  32  44 SE7       30.26S
$$

ARZ050-053-066-070-073-231500-
SOUTHWEST ARKANSAS

CITY           SKY/WX    TMP DP  RH WIND       PRES   REMARKS
ARKADELPHIA    FAIR      55  44  66 NE5       30.20S
CAMDEN         PTSUNNY   57  46  67 SE6       30.19S
TEXARKANA      CLOUDY    56  50  80 E5        30.17R
EL DORADO      SUNNY     60  52  74 SE8       30.19R
DE QUEEN       CLOUDY    55  46  71 E9        30.15S
$$

ARZ056-057-069-231500-
SOUTHEAST ARKANSAS

CITY           SKY/WX    TMP DP  RH WIND       PRES   REMARKS
PINE BLUFF     CLOUDY    56  41  57 SE9       30.22F
STUTTGART      PTSUNNY   55  32  41 SE12      30.24F
MONTICELLO     MOSUNNY   58  43  57 SE8       30.22S

$$






USA.gov is the U.S. government's official web portal to all federal, state and local government web resources and services.